STARLINK-1628 (46169 NORAD) Tracking and Keplerian Element Data

This shows tracking and keplerian element data for the satellite.

Feedback or suggestion? Click here.




ElementValue
Catalog46169
NameSTARLINK-1628
Epoch Orbit634
Epoch Day267.83334491
Epoch Year2020
RAAN263.9872
Inclination53.0013
Eccentricity0.0001424
Argument of Perigee64.565
Mean Anonmoly155.2955
Mean Motion15.33577161
Decay Rate-0.01073425
L11 46169U 20057BE 20267.83334491 -.01073425 00000-0 -35549-1 0 9993
L22 46169 53.0013 263.9872 0001424 64.5650 155.2955 15.33577161 6348

Live tracking and technical data element details for STARLINK-1628 (NORAD 46169). STARLINK-1628 can be tracked NOW for your location showing map with azimuth and elevation plus other details from your city location.

Track the satellite on the map from your city or location and see movement details for azimuth, elevation, latitude, longitude, range, height, and movement on the map or in text.







IsCatalogInMostPopularTable: catalog: 46169, numindb: 8
Update: records affected: 1



GetName: 46169 STARLINK-1628

Hit Count: updated at: Thu, 24 Sep 2020 18:30:55 GMT